Flag for U.S.A. Weather past 2 weeks in Provo, Utah, U.S.A.

Now
73 °F

Clear.


Feels Like: 77 °F
Forecast: 68 / 94 °F
Wind: 5 mph from Southeast

Location: Provo Municipal

Current Time: Jul 4, 2015 at 12:08:58 AM

Latest Report: Jul 3, 2015 at 11:35 PM


Visibility: 10 mi

Pressure: 29.96 "Hg (25.53 "Hg at 1386m altitude)

Humidity: 47%

Dew point: 52 °F

Location of ProvoLocation

Historic Weather in Provo — Graph

°F

Provo temperature yesterday

Maximum temperature yesterday: 97 °F (at 2:54 PM)
Minimum temperature yesterday: 63 °F (at 5:15 AM)
Average temperature yesterday: 75 °F

Past Weeks' High & Low Weather Summary

 TemperatureHumidityPressure
High99 °F (Jun 27, 3:57 PM)63% (Jun 20, 5:35 AM)32.99 "Hg (Jun 20, 5:35 AM)
Low55 °F (Jun 23, 6:15 AM)10% (Jun 19, 2:52 PM)29.83 "Hg (Jun 21, 6:56 PM)
Average75 °F38%30.06 "Hg
* Reported Jun 18 10:15 PM — Jul 3 10:55 PM, Provo, Weather by CustomWeather, © 2015

Note: Actual official high and low records may vary slightly from our data, if they occured in-between our weather recording intervals... More about our weather records

Advertising

Provo weather history for previous 24 hours

 ConditionsComfort  
Time TempWeatherWind HumidityBarometerVisibility
10:55 PM
Fri, Jul 3
79 °FClear.6 mph42%29.96 "Hg10 mi
10:35 PM77 °FClear.6 mph42%29.96 "Hg10 mi
10:15 PM79 °FClear.8 mph39%29.95 "Hg10 mi
9:55 PM81 °FSunny.5 mph28%29.94 "Hg10 mi
9:35 PM82 °FSunny.8 mph26%29.94 "Hg10 mi
9:15 PM84 °FSunny.7 mph25%29.93 "Hg10 mi
7:57 PM91 °FScattered clouds.7 mph26%29.92 "Hg15 mi
6:53 PM91 °FScattered clouds.10 mph28%29.92 "Hg15 mi
5:48 PM95 °FScattered clouds.14 mph20%29.93 "Hg15 mi
4:54 PM97 °FScattered clouds.8 mph16%29.95 "Hg15 mi
3:54 PM97 °FScattered clouds.8 mph17%29.98 "Hg15 mi
2:54 PM97 °FScattered clouds.8 mph18%30.00 "Hg15 mi
1:50 PM93 °FScattered clouds.5 mph21%30.03 "Hg15 mi
12:49 PM88 °FScattered clouds.5 mph27%30.05 "Hg15 mi
11:59 AM86 °FScattered clouds.5 mph27%30.06 "Hg15 mi
10:59 AM84 °FScattered clouds.3 mph29%30.07 "Hg15 mi
9:53 AM81 °FScattered clouds.No wind28%30.08 "Hg15 mi
8:53 AM75 °FScattered clouds.No wind34%30.08 "Hg15 mi
7:53 AM70 °FScattered clouds.5 mph40%30.08 "Hg15 mi
6:49 AM64 °FPassing clouds.10 mph49%30.07 "Hg15 mi
6:35 AM64 °FClear.7 mph46%30.07 "Hg10 mi
6:15 AM64 °FClear.No wind46%30.06 "Hg10 mi
5:55 AM64 °FClear.No wind46%30.06 "Hg10 mi
5:35 AM63 °FClear.No wind49%30.05 "Hg10 mi
5:15 AM63 °FClear.5 mph49%30.05 "Hg10 mi
4:55 AM64 °FClear.5 mph46%30.05 "Hg10 mi
4:35 AM66 °FClear.6 mph46%30.04 "Hg10 mi
4:15 AM64 °FClear.5 mph46%30.04 "Hg10 mi
3:55 AM66 °FClear.No wind40%30.04 "Hg10 mi
3:35 AM66 °FClear.No wind43%30.05 "Hg10 mi
3:15 AM64 °FClear.5 mph49%30.05 "Hg10 mi
2:55 AM64 °FClear.7 mph49%30.05 "Hg10 mi
2:35 AM66 °FClear.8 mph40%30.05 "Hg10 mi
2:15 AM66 °FClear.5 mph43%30.04 "Hg10 mi
1:55 AM66 °FClear.6 mph46%30.04 "Hg10 mi
1:35 AM66 °FClear.3 mph49%30.04 "Hg10 mi
1:15 AM66 °FClear.3 mph52%30.03 "Hg10 mi
12:55 AM68 °FClear.No wind46%30.03 "Hg10 mi
12:35 AM68 °FClear.6 mph46%30.03 "Hg10 mi
Weather by CustomWeather, © 2015

See weather overviewHow to use our weather pages